AAL1724 KCLT-KOAJ

Flight info

Callsign AAL1724
Flight time 0h 36m
Altitude 19000
Route LILLS3 LILLS FAY
Aircraft A321/M-SDE3FGHIRWY/LB1

Departure

Time 2026-05-05 20:49
Airport Charlotte Douglas International Airport (KCLT)

Arrival

Time 2026-05-05 21:25
Airport Albert J Ellis Airport (KOAJ)
Time Latitude Longitude Altitude Speed Heading
2026-05-05 20:27 35.21863 -80.94302 732 ft 0 kts 75°
2026-05-05 20:37 35.21862 -80.94304 732 ft 2 kts 74°
2026-05-05 20:37 35.21852 -80.94326 731 ft 4 kts 52°
2026-05-05 20:37 35.21838 -80.94353 732 ft 4 kts 81°
2026-05-05 20:37 35.21843 -80.94379 732 ft 4 kts 144°
2026-05-05 20:38 35.21867 -80.94390 731 ft 4 kts 179°
2026-05-05 20:38 35.21890 -80.94390 731 ft 1 kts 179°
2026-05-05 20:38 35.21891 -80.94390 732 ft 0 kts 179°
2026-05-05 20:42 35.21890 -80.94390 732 ft 1 kts 179°
2026-05-05 20:43 35.21849 -80.94388 732 ft 16 kts 178°
2026-05-05 20:43 35.21732 -80.94372 732 ft 16 kts 176°
2026-05-05 20:43 35.21669 -80.94287 732 ft 15 kts 99°
2026-05-05 20:43 35.21694 -80.94168 732 ft 16 kts 55°
2026-05-05 20:44 35.21772 -80.94059 732 ft 18 kts 49°
2026-05-05 20:44 35.21841 -80.93935 732 ft 17 kts 64°
2026-05-05 20:44 35.21910 -80.93803 731 ft 20 kts 53°
2026-05-05 20:44 35.22018 -80.93716 733 ft 18 kts 358°
2026-05-05 20:45 35.22269 -80.93734 733 ft 19 kts 356°
2026-05-05 20:45 35.22410 -80.93746 733 ft 20 kts 355°
2026-05-05 20:45 35.22489 -80.93729 734 ft 0 kts 37°
2026-05-05 20:47 35.22489 -80.93728 734 ft 1 kts 39°
2026-05-05 20:48 35.22502 -80.93678 735 ft 9 kts 89°
2026-05-05 20:48 35.22467 -80.93622 736 ft 10 kts 160°
2026-05-05 20:48 35.22349 -80.93607 736 ft 24 kts 176°
2026-05-05 20:48 35.22008 -80.93578 736 ft 81 kts 176°
2026-05-05 20:49 35.21242 -80.93515 735 ft 137 kts 175°
2026-05-05 20:49 35.20189 -80.93439 1054 ft 151 kts 181°
2026-05-05 20:49 35.19188 -80.93389 1867 ft 142 kts 179°
2026-05-05 20:49 35.18200 -80.93192 2345 ft 148 kts 176°
2026-05-05 20:50 35.17168 -80.93136 2840 ft 148 kts 180°
2026-05-05 20:50 35.16213 -80.92706 3472 ft 152 kts 143°
2026-05-05 20:50 35.15717 -80.91530 4008 ft 164 kts 110°
2026-05-05 20:50 35.15375 -80.90135 4324 ft 181 kts 114°
2026-05-05 20:51 35.15070 -80.88571 4702 ft 196 kts 106°
2026-05-05 20:51 35.14765 -80.86927 5134 ft 202 kts 109°
2026-05-05 20:51 35.14432 -80.85171 5329 ft 222 kts 108°
2026-05-05 20:51 35.14071 -80.83244 5453 ft 243 kts 107°
2026-05-05 20:52 35.13668 -80.81160 5711 ft 257 kts 108°
2026-05-05 20:52 35.13243 -80.79018 6222 ft 260 kts 108°
2026-05-05 20:52 35.12796 -80.76842 6757 ft 262 kts 108°
2026-05-05 20:52 35.12329 -80.74645 7252 ft 266 kts 109°
2026-05-05 20:53 35.11853 -80.72446 7715 ft 270 kts 109°
2026-05-05 20:53 35.11364 -80.70210 8224 ft 273 kts 109°
2026-05-05 20:53 35.10862 -80.67940 8587 ft 286 kts 109°
2026-05-05 20:53 35.10329 -80.65548 9085 ft 296 kts 109°
2026-05-05 20:54 35.09782 -80.63098 9671 ft 302 kts 109°
2026-05-05 20:54 35.09227 -80.60603 10178 ft 310 kts 109°
2026-05-05 20:54 35.08638 -80.57972 10317 ft 332 kts 109°
2026-05-05 20:54 35.08009 -80.55161 10442 ft 354 kts 108°
2026-05-05 20:55 35.07344 -80.52183 10565 ft 373 kts 108°
2026-05-05 20:55 35.06649 -80.49078 10925 ft 383 kts 108°
2026-05-05 20:55 35.05949 -80.45919 11483 ft 387 kts 108°
2026-05-05 20:55 35.05245 -80.42730 12063 ft 391 kts 108°
2026-05-05 20:56 35.04532 -80.39510 12632 ft 395 kts 108°
2026-05-05 20:56 35.03805 -80.36251 13218 ft 399 kts 108°
2026-05-05 20:56 35.03069 -80.32971 13783 ft 403 kts 108°
2026-05-05 20:56 35.02320 -80.29643 14100 ft 414 kts 108°
2026-05-05 20:57 35.01544 -80.26196 14216 ft 429 kts 107°
2026-05-05 20:57 35.00738 -80.22628 14380 ft 442 kts 107°
2026-05-05 20:57 34.99914 -80.18981 14744 ft 448 kts 107°
2026-05-05 20:57 34.99084 -80.15300 15182 ft 451 kts 107°
2026-05-05 20:58 34.98229 -80.11605 15640 ft 454 kts 108°
2026-05-05 20:58 34.97328 -80.07905 16074 ft 457 kts 108°
2026-05-05 20:58 34.96388 -80.04184 16490 ft 461 kts 109°
2026-05-05 20:58 34.95427 -80.00444 16905 ft 464 kts 109°
2026-05-05 20:59 34.94465 -79.96676 17305 ft 467 kts 108°
2026-05-05 20:59 34.93806 -79.92776 17699 ft 472 kts 97°
2026-05-05 20:59 34.93743 -79.88772 18085 ft 475 kts 86°
2026-05-05 20:59 34.93961 -79.84741 18444 ft 478 kts 86°
2026-05-05 21:00 34.94180 -79.80684 18777 ft 481 kts 86°
2026-05-05 21:00 34.94395 -79.76605 18985 ft 482 kts 86°
2026-05-05 21:00 34.94603 -79.72526 19046 ft 482 kts 86°
2026-05-05 21:00 34.94805 -79.68443 19024 ft 482 kts 86°
2026-05-05 21:01 34.95001 -79.64364 19020 ft 482 kts 86°
2026-05-05 21:01 34.95197 -79.60281 19024 ft 482 kts 86°
2026-05-05 21:01 34.95394 -79.56201 19017 ft 482 kts 86°
2026-05-05 21:01 34.95592 -79.52117 19020 ft 482 kts 86°
2026-05-05 21:02 34.95790 -79.48035 19021 ft 482 kts 86°
2026-05-05 21:02 34.95987 -79.43947 19016 ft 482 kts 86°
2026-05-05 21:02 34.96182 -79.39868 19019 ft 481 kts 86°
2026-05-05 21:02 34.96376 -79.35799 19016 ft 481 kts 86°
2026-05-05 21:03 34.96567 -79.31737 18796 ft 480 kts 87°
2026-05-05 21:03 34.96757 -79.27674 18603 ft 478 kts 87°
2026-05-05 21:03 34.96949 -79.23583 18356 ft 476 kts 87°
2026-05-05 21:03 34.97136 -79.19563 17941 ft 473 kts 87°
2026-05-05 21:04 34.97319 -79.15572 17547 ft 470 kts 87°
2026-05-05 21:04 34.97499 -79.11600 17158 ft 467 kts 87°
2026-05-05 21:04 34.97674 -79.07710 16765 ft 464 kts 87°
2026-05-05 21:04 34.97849 -79.03791 16399 ft 461 kts 88°
2026-05-05 21:05 34.97966 -79.01163 16147 ft 459 kts 87°
2026-05-05 21:05 34.98195 -78.96021 15654 ft 456 kts 88°
2026-05-05 21:05 34.98363 -78.92173 15290 ft 453 kts 88°
2026-05-05 21:05 34.98528 -78.88350 14930 ft 451 kts 88°
2026-05-05 21:06 34.98625 -78.85767 14689 ft 449 kts 89°
2026-05-05 21:06 34.98713 -78.81973 14341 ft 446 kts 90°
2026-05-05 21:06 34.98748 -78.78200 13992 ft 445 kts 91°
2026-05-05 21:06 34.98759 -78.74439 13638 ft 442 kts 91°
2026-05-05 21:07 34.98767 -78.70709 13247 ft 439 kts 91°
2026-05-05 21:07 34.98785 -78.66997 12862 ft 436 kts 91°
2026-05-05 21:07 34.98816 -78.63313 12476 ft 433 kts 91°
2026-05-05 21:07 34.98855 -78.59658 12099 ft 430 kts 91°
2026-05-05 21:08 34.98898 -78.56027 11729 ft 427 kts 91°
2026-05-05 21:08 34.98940 -78.52419 11353 ft 424 kts 91°
2026-05-05 21:08 34.98978 -78.48830 10989 ft 420 kts 91°
2026-05-05 21:08 34.99013 -78.45363 10631 ft 409 kts 92°
2026-05-05 21:09 34.99047 -78.41900 10273 ft 397 kts 92°
2026-05-05 21:09 34.99077 -78.38577 9916 ft 387 kts 92°
2026-05-05 21:09 34.99103 -78.35332 9530 ft 378 kts 92°
2026-05-05 21:09 34.99126 -78.32166 9140 ft 369 kts 93°
2026-05-05 21:10 34.99148 -78.29072 8750 ft 361 kts 93°
2026-05-05 21:10 34.99169 -78.26038 8381 ft 354 kts 93°
2026-05-05 21:10 34.99187 -78.23064 8008 ft 348 kts 93°
2026-05-05 21:10 34.99206 -78.20153 7634 ft 336 kts 93°
2026-05-05 21:11 34.99228 -78.17423 7280 ft 319 kts 93°
2026-05-05 21:11 34.99250 -78.14769 6907 ft 305 kts 93°
2026-05-05 21:11 34.99270 -78.12217 6548 ft 294 kts 94°
2026-05-05 21:11 34.99282 -78.09724 6177 ft 294 kts 94°
2026-05-05 21:12 34.99292 -78.07237 5797 ft 292 kts 94°
2026-05-05 21:12 34.99301 -78.04767 5428 ft 291 kts 94°
2026-05-05 21:12 34.99313 -78.02308 5058 ft 289 kts 93°
2026-05-05 21:12 34.99326 -77.99863 4685 ft 288 kts 93°
2026-05-05 21:13 34.99339 -77.97426 4297 ft 287 kts 94°
2026-05-05 21:13 34.99351 -77.95003 3923 ft 286 kts 94°
2026-05-05 21:13 34.99358 -77.92584 3543 ft 285 kts 93°
2026-05-05 21:13 34.99366 -77.90169 3179 ft 285 kts 94°
2026-05-05 21:14 34.99375 -77.87771 2970 ft 278 kts 93°
2026-05-05 21:14 34.99388 -77.85484 2976 ft 261 kts 94°
2026-05-05 21:14 34.99403 -77.83339 2976 ft 245 kts 94°
2026-05-05 21:14 34.99418 -77.81337 2976 ft 227 kts 95°
2026-05-05 21:15 34.99429 -77.79487 2999 ft 212 kts 96°
2026-05-05 21:15 34.99434 -77.77729 3027 ft 201 kts 95°
2026-05-05 21:15 34.99440 -77.76056 3033 ft 193 kts 96°
2026-05-05 21:15 34.99444 -77.74446 3014 ft 184 kts 95°
2026-05-05 21:16 34.99448 -77.72937 3008 ft 175 kts 96°
2026-05-05 21:16 34.99450 -77.71463 3008 ft 173 kts 95°
2026-05-05 21:16 34.99450 -77.70001 3002 ft 172 kts 96°
2026-05-05 21:16 34.99449 -77.68545 2997 ft 171 kts 96°
2026-05-05 21:17 34.99448 -77.67097 3003 ft 171 kts 97°
2026-05-05 21:17 34.99449 -77.65648 3006 ft 170 kts 95°
2026-05-05 21:17 34.99453 -77.64207 3007 ft 170 kts 95°
2026-05-05 21:17 34.99456 -77.62775 3014 ft 168 kts 96°
2026-05-05 21:18 34.99456 -77.61354 3011 ft 168 kts 96°
2026-05-05 21:18 34.99457 -77.59918 3013 ft 169 kts 97°
2026-05-05 21:18 34.99459 -77.58476 3001 ft 171 kts 95°
2026-05-05 21:18 34.99461 -77.57033 3006 ft 169 kts 95°
2026-05-05 21:19 34.99464 -77.55604 3001 ft 168 kts 97°
2026-05-05 21:19 34.99466 -77.54182 3003 ft 167 kts 97°
2026-05-05 21:19 34.99456 -77.52752 3001 ft 168 kts 102°
2026-05-05 21:19 34.99200 -77.51393 3007 ft 162 kts 118°
2026-05-05 21:20 34.98657 -77.50220 3007 ft 156 kts 134°
2026-05-05 21:20 34.97903 -77.49293 3006 ft 152 kts 148°
2026-05-05 21:20 34.97000 -77.48648 3017 ft 150 kts 160°
2026-05-05 21:20 34.96007 -77.48314 3011 ft 149 kts 173°
2026-05-05 21:21 34.94971 -77.48296 3007 ft 149 kts 187°
2026-05-05 21:21 34.93971 -77.48597 2999 ft 149 kts 199°
2026-05-05 21:21 34.93067 -77.49200 2998 ft 148 kts 212°
2026-05-05 21:21 34.92365 -77.49975 2902 ft 128 kts 220°
2026-05-05 21:22 34.91727 -77.50799 2621 ft 140 kts 225°
2026-05-05 21:22 34.91107 -77.51714 2220 ft 138 kts 225°
2026-05-05 21:22 34.90464 -77.52559 1869 ft 132 kts 219°
2026-05-05 21:22 34.89772 -77.53256 1572 ft 125 kts 214°
2026-05-05 21:23 34.89128 -77.53921 1273 ft 123 kts 217°
2026-05-05 21:23 34.88462 -77.54641 1170 ft 134 kts 218°
2026-05-05 21:23 34.87792 -77.55446 1103 ft 138 kts 219°
2026-05-05 21:23 34.87111 -77.56273 1029 ft 136 kts 218°
2026-05-05 21:24 34.86433 -77.57060 873 ft 133 kts 219°
2026-05-05 21:24 34.85787 -77.57841 671 ft 135 kts 218°
2026-05-05 21:24 34.85107 -77.58627 540 ft 135 kts 219°
2026-05-05 21:24 34.84384 -77.59493 399 ft 145 kts 216°
2026-05-05 21:25 34.83681 -77.60313 153 ft 133 kts 218°
2026-05-05 21:25 34.83095 -77.60995 101 ft 85 kts 226°
2026-05-05 21:25 34.82809 -77.61339 104 ft 45 kts 223°
2026-05-05 21:25 34.82626 -77.61552 103 ft 17 kts 216°
2026-05-05 21:26 34.82544 -77.61504 101 ft 15 kts 113°
2026-05-05 21:26 34.82574 -77.61433 102 ft 10 kts 45°
2026-05-05 21:26 34.82669 -77.61328 102 ft 24 kts 46°
2026-05-05 21:26 34.82788 -77.61180 102 ft 24 kts 44°
2026-05-05 21:27 34.82892 -77.61056 102 ft 18 kts 45°
2026-05-05 21:27 34.82944 -77.60962 102 ft 10 kts 102°
2026-05-05 21:27 34.82911 -77.60899 102 ft 0 kts 133°
2026-05-05 21:27 34.82908 -77.60894 102 ft 5 kts 132°
2026-05-05 21:28 34.82890 -77.60870 101 ft 0 kts 124°
2026-05-05 21:28 34.82891 -77.60857 102 ft 4 kts 87°
2026-05-05 21:28 34.82892 -77.60817 102 ft 5 kts 85°
2026-05-05 21:28 34.82895 -77.60801 102 ft 0 kts 76°